owner,sensor,date,latitude,longitude,vertical_datum,sea_water_temperature,qcFlag 
TABS,ioos:station:wmo:42047:1,2002-04-17T16:30:00Z,27.8966,-93.5973,-2.0,23.54,11111222 
TABS,ioos:station:wmo:42047:1,2002-04-17T17:00:00Z,27.8966,-93.5973,-2.0,23.57,11111222 
TABS,ioos:station:wmo:42047:1,2002-04-17T17:30:00Z,27.8966,-93.5973,-2.0,23.59,11111222 
TABS,ioos:station:wmo:42047:1,2002-04-17T18:00:00Z,27.8966,-93.5973,-2.0,23.6,11111222 
TABS,ioos:station:wmo:42047:1,2002-04-17T18:30:00Z,27.8966,-93.5973,-2.0,23.62,11111222 
TABS,ioos:station:wmo:42047:1,2002-04-17T19:00:00Z,27.8966,-93.5973,-2.0,23.64,11111222 
TABS,ioos:station:wmo:42047:1,2002-04-17T19:30:00Z,27.8966,-93.5973,-2.0,23.71,11111222 
TABS,ioos:station:wmo:42047:1,2002-04-17T20:00:00Z,27.8966,-93.5973,-2.0,23.72,11111222 
TABS,ioos:station:wmo:42047:1,2002-04-17T20:30:00Z,27.8966,-93.5973,-2.0,23.79,11111222 
TABS,ioos:station:wmo:42047:1,2002-04-17T21:00:00Z,27.8966,-93.5973,-2.0,23.79,11111222 
TABS,ioos:station:wmo:42047:1,2002-04-17T21:30:00Z,27.8966,-93.5973,-2.0,23.84,11111222 
TABS,ioos:station:wmo:42047:1,2002-04-17T22:00:00Z,27.8966,-93.5973,-2.0,23.8,11111222 
TABS,ioos:station:wmo:42047:1,2002-04-17T22:30:00Z,27.8966,-93.5973,-2.0,23.83,11111222 
TABS,ioos:station:wmo:42047:1,2002-04-17T23:00:00Z,27.8966,-93.5973,-2.0,23.82,11111222 
TABS,ioos:station:wmo:42047:1,2002-04-17T23:30:00Z,27.8966,-93.5973,-2.0,23.8,11111222 
TABS,ioos:station:wmo:42047:1,2002-04-18T00:00:00Z,27.8966,-93.5973,-2.0,23.77,11111222 
TABS,ioos:station:wmo:42047:1,2002-04-18T00:30:00Z,27.8966,-93.5973,-2.0,23.74,11111222 
TABS,ioos:station:wmo:42047:1,2002-04-18T01:00:00Z,27.8966,-93.5973,-2.0,23.72,11111222 
TABS,ioos:station:wmo:42047:1,2002-04-18T01:30:00Z,27.8966,-93.5973,-2.0,23.72,11111222 
TABS,ioos:station:wmo:42047:1,2002-04-18T02:00:00Z,27.8966,-93.5973,-2.0,23.74,11111222 
TABS,ioos:station:wmo:42047:1,2002-04-18T02:30:00Z,27.8966,-93.5973,-2.0,23.73,11111222 
TABS,ioos:station:wmo:42047:1,2002-04-18T03:00:00Z,27.8966,-93.5973,-2.0,23.73,11111222 
TABS,ioos:station:wmo:42047:1,2002-04-18T03:30:00Z,27.8966,-93.5973,-2.0,23.71,11111222 
TABS,ioos:station:wmo:42047:1,2002-04-18T04:00:00Z,27.8966,-93.5973,-2.0,23.7,11111222 
TABS,ioos:station:wmo:42047:1,2002-04-18T04:30:00Z,27.8966,-93.5973,-2.0,23.68,11111222 
TABS,ioos:station:wmo:42047:1,2002-04-18T05:00:00Z,27.8966,-93.5973,-2.0,23.66,11111222 
TABS,ioos:station:wmo:42047:1,2002-04-18T05:30:00Z,27.8966,-93.5973,-2.0,23.67,11111222 
TABS,ioos:station:wmo:42047:1,2002-04-18T06:00:00Z,27.8966,-93.5973,-2.0,23.65,11111222 
TABS,ioos:station:wmo:42047:1,2002-04-18T06:30:00Z,27.8966,-93.5973,-2.0,23.64,11111222 
TABS,ioos:station:wmo:42047:1,2002-04-18T07:00:00Z,27.8966,-93.5973,-2.0,23.62,11111222 
TABS,ioos:station:wmo:42047:1,2002-04-18T07:30:00Z,27.8966,-93.5973,-2.0,23.6,11111222 
TABS,ioos:station:wmo:42047:1,2002-04-18T08:00:00Z,27.8966,-93.5973,-2.0,23.61,11111222 
TABS,ioos:station:wmo:42047:1,2002-04-18T08:30:00Z,27.8966,-93.5973,-2.0,23.62,11111222 
TABS,ioos:station:wmo:42047:1,2002-04-18T09:00:00Z,27.8966,-93.5973,-2.0,23.61,11111222 
TABS,ioos:station:wmo:42047:1,2002-04-18T09:30:00Z,27.8966,-93.5973,-2.0,23.6,11111222 
TABS,ioos:station:wmo:42047:1,2002-04-18T10:00:00Z,27.8966,-93.5973,-2.0,23.59,11111222 
TABS,ioos:station:wmo:42047:1,2002-04-18T10:30:00Z,27.8966,-93.5973,-2.0,23.58,11111222 
TABS,ioos:station:wmo:42047:1,2002-04-18T11:00:00Z,27.8966,-93.5973,-2.0,23.57,11111222 
TABS,ioos:station:wmo:42047:1,2002-04-18T11:30:00Z,27.8966,-93.5973,-2.0,23.58,11111222 
TABS,ioos:station:wmo:42047:1,2002-04-18T12:00:00Z,27.8966,-93.5973,-2.0,23.59,11111222 
TABS,ioos:station:wmo:42047:1,2002-04-18T12:30:00Z,27.8966,-93.5973,-2.0,23.59,11111222 
TABS,ioos:station:wmo:42047:1,2002-04-18T13:00:00Z,27.8966,-93.5973,-2.0,23.59,11111222 
TABS,ioos:station:wmo:42047:1,2002-04-18T13:30:00Z,27.8966,-93.5973,-2.0,23.59,11111222 
TABS,ioos:station:wmo:42047:1,2002-04-18T14:00:00Z,27.8966,-93.5973,-2.0,23.61,11111222 
TABS,ioos:station:wmo:42047:1,2002-04-18T14:30:00Z,27.8966,-93.5973,-2.0,23.62,11111222 
TABS,ioos:station:wmo:42047:1,2002-04-18T15:00:00Z,27.8966,-93.5973,-2.0,23.64,11111222 
TABS,ioos:station:wmo:42047:1,2002-04-18T15:30:00Z,27.8966,-93.5973,-2.0,23.67,11111222 
TABS,ioos:station:wmo:42047:1,2002-04-18T16:00:00Z,27.8966,-93.5973,-2.0,23.68,11111222 
TABS,ioos:station:wmo:42047:1,2002-04-18T16:30:00Z,27.8966,-93.5973,-2.0,23.68,11111222 
TABS,ioos:station:wmo:42047:1,2002-04-18T17:00:00Z,27.8966,-93.5973,-2.0,23.84,11111222 
TABS,ioos:station:wmo:42047:1,2002-04-18T17:30:00Z,27.8966,-93.5973,-2.0,23.89,11111222 
TABS,ioos:station:wmo:42047:1,2002-04-18T18:00:00Z,27.8966,-93.5973,-2.0,23.95,11111222 
TABS,ioos:station:wmo:42047:1,2002-04-18T18:30:00Z,27.8966,-93.5973,-2.0,24.0,11111222 
TABS,ioos:station:wmo:42047:1,2002-04-18T19:00:00Z,27.8966,-93.5973,-2.0,24.0,11111222 
TABS,ioos:station:wmo:42047:1,2002-04-18T19:30:00Z,27.8966,-93.5973,-2.0,24.2,11111222 
TABS,ioos:station:wmo:42047:1,2002-04-18T20:30:00Z,27.8966,-93.5973,-2.0,24.27,11111222 
TABS,ioos:station:wmo:42047:1,2002-04-18T21:00:00Z,27.8966,-93.5973,-2.0,24.27,11111222 
TABS,ioos:station:wmo:42047:1,2002-04-18T21:30:00Z,27.8966,-93.5973,-2.0,24.21,11111222 
TABS,ioos:station:wmo:42047:1,2002-04-18T22:30:00Z,27.8966,-93.5973,-2.0,24.24,11111222 
TABS,ioos:station:wmo:42047:1,2002-04-18T23:30:00Z,27.8966,-93.5973,-2.0,24.13,11111222 
TABS,ioos:station:wmo:42047:1,2002-04-19T00:30:00Z,27.8966,-93.5973,-2.0,24.04,11111222 
TABS,ioos:station:wmo:42047:1,2002-04-19T01:30:00Z,27.8966,-93.5973,-2.0,24.1,11111222 
TABS,ioos:station:wmo:42047:1,2002-04-19T02:30:00Z,27.8966,-93.5973,-2.0,24.01,11111222 
TABS,ioos:station:wmo:42047:1,2002-04-19T03:30:00Z,27.8966,-93.5973,-2.0,24.08,11111222 
TABS,ioos:station:wmo:42047:1,2002-04-19T04:30:00Z,27.8966,-93.5973,-2.0,24.0,11111222 
TABS,ioos:station:wmo:42047:1,2002-04-19T05:30:00Z,27.8966,-93.5973,-2.0,23.94,11111222 
TABS,ioos:station:wmo:42047:1,2002-04-19T06:30:00Z,27.8966,-93.5973,-2.0,23.89,11111222 
TABS,ioos:station:wmo:42047:1,2002-04-19T07:30:00Z,27.8966,-93.5973,-2.0,23.88,11111222 
TABS,ioos:station:wmo:42047:1,2002-04-19T08:30:00Z,27.8966,-93.5973,-2.0,23.92,11111222 
TABS,ioos:station:wmo:42047:1,2002-04-19T09:30:00Z,27.8966,-93.5973,-2.0,23.82,11111222 
TABS,ioos:station:wmo:42047:1,2002-04-19T10:30:00Z,27.8966,-93.5973,-2.0,23.74,11111222 
TABS,ioos:station:wmo:42047:1,2002-04-19T11:30:00Z,27.8966,-93.5973,-2.0,23.7,11111222 
TABS,ioos:station:wmo:42047:1,2002-04-19T12:30:00Z,27.8966,-93.5973,-2.0,23.65,11111222 
TABS,ioos:station:wmo:42047:1,2002-04-19T13:00:00Z,27.8966,-93.5973,-2.0,23.69,11111222 
TABS,ioos:station:wmo:42047:1,2002-04-19T13:30:00Z,27.8966,-93.5973,-2.0,23.69,11111222 
TABS,ioos:station:wmo:42047:1,2002-04-19T14:00:00Z,27.8966,-93.5973,-2.0,23.64,11111222 
TABS,ioos:station:wmo:42047:1,2002-04-19T14:30:00Z,27.8966,-93.5973,-2.0,23.6,11111222 
TABS,ioos:station:wmo:42047:1,2002-04-19T15:00:00Z,27.8966,-93.5973,-2.0,23.58,11111222 
TABS,ioos:station:wmo:42047:1,2002-04-19T15:30:00Z,27.8966,-93.5973,-2.0,23.6,11111222 
TABS,ioos:station:wmo:42047:1,2002-04-19T16:00:00Z,27.8966,-93.5973,-2.0,23.61,11111222 
TABS,ioos:station:wmo:42047:1,2002-04-19T16:30:00Z,27.8966,-93.5973,-2.0,23.62,11111222 
TABS,ioos:station:wmo:42047:1,2002-04-19T17:00:00Z,27.8966,-93.5973,-2.0,23.63,11111222 
TABS,ioos:station:wmo:42047:1,2002-04-19T17:30:00Z,27.8966,-93.5973,-2.0,23.68,11111222 
TABS,ioos:station:wmo:42047:1,2002-04-19T18:00:00Z,27.8966,-93.5973,-2.0,23.75,11111222 
TABS,ioos:station:wmo:42047:1,2002-04-19T18:30:00Z,27.8966,-93.5973,-2.0,23.78,11111222 
TABS,ioos:station:wmo:42047:1,2002-04-19T19:00:00Z,27.8966,-93.5973,-2.0,23.85,11111222 
TABS,ioos:station:wmo:42047:1,2002-04-19T19:30:00Z,27.8966,-93.5973,-2.0,23.92,11111222 
TABS,ioos:station:wmo:42047:1,2002-04-19T20:00:00Z,27.8966,-93.5973,-2.0,23.98,11111222 
TABS,ioos:station:wmo:42047:1,2002-04-19T20:30:00Z,27.8966,-93.5973,-2.0,23.99,11111222 
TABS,ioos:station:wmo:42047:1,2002-04-19T21:00:00Z,27.8966,-93.5973,-2.0,23.98,11111222 
TABS,ioos:station:wmo:42047:1,2002-04-19T21:30:00Z,27.8966,-93.5973,-2.0,24.02,11111222 
TABS,ioos:station:wmo:42047:1,2002-04-19T22:00:00Z,27.8966,-93.5973,-2.0,24.09,11111222 
TABS,ioos:station:wmo:42047:1,2002-04-19T22:30:00Z,27.8966,-93.5973,-2.0,24.1,11111222 
TABS,ioos:station:wmo:42047:1,2002-04-19T23:00:00Z,27.8966,-93.5973,-2.0,24.11,11111222 
TABS,ioos:station:wmo:42047:1,2002-04-19T23:30:00Z,27.8966,-93.5973,-2.0,24.09,11111222 
TABS,ioos:station:wmo:42047:1,2002-04-20T00:00:00Z,27.8966,-93.5973,-2.0,24.09,11111222 
TABS,ioos:station:wmo:42047:1,2002-04-20T00:30:00Z,27.8966,-93.5973,-2.0,24.08,11111222 
TABS,ioos:station:wmo:42047:1,2002-04-20T01:00:00Z,27.8966,-93.5973,-2.0,24.05,11111222 
TABS,ioos:station:wmo:42047:1,2002-04-20T01:30:00Z,27.8966,-93.5973,-2.0,24.06,11111222 
TABS,ioos:station:wmo:42047:1,2002-04-20T02:00:00Z,27.8966,-93.5973,-2.0,24.04,11111222 
TABS,ioos:station:wmo:42047:1,2002-04-20T02:30:00Z,27.8966,-93.5973,-2.0,24.08,11111222 
TABS,ioos:station:wmo:42047:1,2002-04-20T03:00:00Z,27.8966,-93.5973,-2.0,24.06,11111222 
TABS,ioos:station:wmo:42047:1,2002-04-20T03:30:00Z,27.8966,-93.5973,-2.0,24.07,11111222 
TABS,ioos:station:wmo:42047:1,2002-04-20T04:00:00Z,27.8966,-93.5973,-2.0,24.08,11111222 
TABS,ioos:station:wmo:42047:1,2002-04-20T04:30:00Z,27.8966,-93.5973,-2.0,24.04,11111222 
TABS,ioos:station:wmo:42047:1,2002-04-20T05:00:00Z,27.8966,-93.5973,-2.0,24.0,11111222 
TABS,ioos:station:wmo:42047:1,2002-04-20T05:30:00Z,27.8966,-93.5973,-2.0,24.0,11111222 
TABS,ioos:station:wmo:42047:1,2002-04-20T06:00:00Z,27.8966,-93.5973,-2.0,24.08,11111222 
TABS,ioos:station:wmo:42047:1,2002-04-20T06:30:00Z,27.8966,-93.5973,-2.0,24.04,11111222 
TABS,ioos:station:wmo:42047:1,2002-04-20T07:00:00Z,27.8966,-93.5973,-2.0,24.05,11111222 
TABS,ioos:station:wmo:42047:1,2002-04-20T07:30:00Z,27.8966,-93.5973,-2.0,24.05,11111222 
TABS,ioos:station:wmo:42047:1,2002-04-20T08:00:00Z,27.8966,-93.5973,-2.0,24.04,11111222 
TABS,ioos:station:wmo:42047:1,2002-04-20T08:30:00Z,27.8966,-93.5973,-2.0,24.03,11111222 
TABS,ioos:station:wmo:42047:1,2002-04-20T09:00:00Z,27.8966,-93.5973,-2.0,24.04,11111222 
TABS,ioos:station:wmo:42047:1,2002-04-20T09:30:00Z,27.8966,-93.5973,-2.0,24.05,11111222 
TABS,ioos:station:wmo:42047:1,2002-04-20T10:00:00Z,27.8966,-93.5973,-2.0,24.03,11111222 
TABS,ioos:station:wmo:42047:1,2002-04-20T10:30:00Z,27.8966,-93.5973,-2.0,24.03,11111222 
TABS,ioos:station:wmo:42047:1,2002-04-20T11:00:00Z,27.8966,-93.5973,-2.0,24.01,11111222 
TABS,ioos:station:wmo:42047:1,2002-04-20T11:30:00Z,27.8966,-93.5973,-2.0,23.99,11111222 
TABS,ioos:station:wmo:42047:1,2002-04-20T12:00:00Z,27.8966,-93.5973,-2.0,23.99,11111222 
TABS,ioos:station:wmo:42047:1,2002-04-20T12:30:00Z,27.8966,-93.5973,-2.0,24.0,11111222 
TABS,ioos:station:wmo:42047:1,2002-04-20T13:00:00Z,27.8966,-93.5973,-2.0,24.01,11111222 
TABS,ioos:station:wmo:42047:1,2002-04-20T13:30:00Z,27.8966,-93.5973,-2.0,24.01,11111222 
TABS,ioos:station:wmo:42047:1,2002-04-20T14:00:00Z,27.8966,-93.5973,-2.0,24.04,11111222 
TABS,ioos:station:wmo:42047:1,2002-04-20T14:30:00Z,27.8966,-93.5973,-2.0,24.06,11111222 
TABS,ioos:station:wmo:42047:1,2002-04-20T15:00:00Z,27.8966,-93.5973,-2.0,24.1,11111222 
TABS,ioos:station:wmo:42047:1,2002-04-20T15:30:00Z,27.8966,-93.5973,-2.0,24.14,11111222 
TABS,ioos:station:wmo:42047:1,2002-04-20T16:00:00Z,27.8966,-93.5973,-2.0,24.15,11111222 
TABS,ioos:station:wmo:42047:1,2002-04-20T16:30:00Z,27.8966,-93.5973,-2.0,24.16,11111222 
TABS,ioos:station:wmo:42047:1,2002-04-20T17:00:00Z,27.8966,-93.5973,-2.0,24.17,11111222 
TABS,ioos:station:wmo:42047:1,2002-04-20T17:30:00Z,27.8966,-93.5973,-2.0,24.21,11111222 
TABS,ioos:station:wmo:42047:1,2002-04-20T18:00:00Z,27.8966,-93.5973,-2.0,24.24,11111222 
TABS,ioos:station:wmo:42047:1,2002-04-20T18:30:00Z,27.8966,-93.5973,-2.0,24.27,11111222 
TABS,ioos:station:wmo:42047:1,2002-04-20T19:00:00Z,27.8966,-93.5973,-2.0,24.34,11111222 
TABS,ioos:station:wmo:42047:1,2002-04-20T19:30:00Z,27.8966,-93.5973,-2.0,24.36,11111222 
TABS,ioos:station:wmo:42047:1,2002-04-20T20:00:00Z,27.8966,-93.5973,-2.0,24.37,11111222 
TABS,ioos:station:wmo:42047:1,2002-04-20T20:30:00Z,27.8966,-93.5973,-2.0,24.45,11111222 
TABS,ioos:station:wmo:42047:1,2002-04-20T21:00:00Z,27.8966,-93.5973,-2.0,24.51,11111222 
TABS,ioos:station:wmo:42047:1,2002-04-20T21:30:00Z,27.8966,-93.5973,-2.0,24.47,11111222 
TABS,ioos:station:wmo:42047:1,2002-04-20T22:00:00Z,27.8966,-93.5973,-2.0,24.51,11111222 
TABS,ioos:station:wmo:42047:1,2002-04-20T22:30:00Z,27.8966,-93.5973,-2.0,24.47,11111222 
TABS,ioos:station:wmo:42047:1,2002-04-20T23:00:00Z,27.8966,-93.5973,-2.0,24.45,11111222 
TABS,ioos:station:wmo:42047:1,2002-04-20T23:30:00Z,27.8966,-93.5973,-2.0,24.45,11111222 
TABS,ioos:station:wmo:42047:1,2002-04-21T00:00:00Z,27.8966,-93.5973,-2.0,24.42,11111222 
TABS,ioos:station:wmo:42047:1,2002-04-21T00:30:00Z,27.8966,-93.5973,-2.0,24.41,11111222 
TABS,ioos:station:wmo:42047:1,2002-04-21T01:00:00Z,27.8966,-93.5973,-2.0,24.37,11111222 
TABS,ioos:station:wmo:42047:1,2002-04-21T01:30:00Z,27.8966,-93.5973,-2.0,24.36,11111222 
TABS,ioos:station:wmo:42047:1,2002-04-21T02:00:00Z,27.8966,-93.5973,-2.0,24.33,11111222 
TABS,ioos:station:wmo:42047:1,2002-04-21T02:30:00Z,27.8966,-93.5973,-2.0,24.3,11111222 
TABS,ioos:station:wmo:42047:1,2002-04-21T03:00:00Z,27.8966,-93.5973,-2.0,24.27,11111222 
TABS,ioos:station:wmo:42047:1,2002-04-21T03:30:00Z,27.8966,-93.5973,-2.0,24.26,11111222 
TABS,ioos:station:wmo:42047:1,2002-04-21T04:00:00Z,27.8966,-93.5973,-2.0,24.26,11111222 
TABS,ioos:station:wmo:42047:1,2002-04-21T04:30:00Z,27.8966,-93.5973,-2.0,24.26,11111222 
TABS,ioos:station:wmo:42047:1,2002-04-21T05:00:00Z,27.8966,-93.5973,-2.0,24.26,11111222 
TABS,ioos:station:wmo:42047:1,2002-04-21T05:30:00Z,27.8966,-93.5973,-2.0,24.25,11111222 
TABS,ioos:station:wmo:42047:1,2002-04-21T06:00:00Z,27.8966,-93.5973,-2.0,24.21,11111222 
TABS,ioos:station:wmo:42047:1,2002-04-21T06:30:00Z,27.8966,-93.5973,-2.0,24.2,11111222 
TABS,ioos:station:wmo:42047:1,2002-04-21T07:00:00Z,27.8966,-93.5973,-2.0,24.17,11111222 
TABS,ioos:station:wmo:42047:1,2002-04-21T07:30:00Z,27.8966,-93.5973,-2.0,24.17,11111222 
TABS,ioos:station:wmo:42047:1,2002-04-21T08:00:00Z,27.8966,-93.5973,-2.0,24.19,11111222 
TABS,ioos:station:wmo:42047:1,2002-04-21T08:30:00Z,27.8966,-93.5973,-2.0,24.19,11111222 
TABS,ioos:station:wmo:42047:1,2002-04-21T09:00:00Z,27.8966,-93.5973,-2.0,24.19,11111222 
TABS,ioos:station:wmo:42047:1,2002-04-21T09:30:00Z,27.8966,-93.5973,-2.0,24.19,11111222 
TABS,ioos:station:wmo:42047:1,2002-04-21T10:00:00Z,27.8966,-93.5973,-2.0,24.21,11111222 
TABS,ioos:station:wmo:42047:1,2002-04-21T10:30:00Z,27.8966,-93.5973,-2.0,24.23,11111222 
TABS,ioos:station:wmo:42047:1,2002-04-21T11:00:00Z,27.8966,-93.5973,-2.0,24.17,11111222 
TABS,ioos:station:wmo:42047:1,2002-04-21T11:30:00Z,27.8966,-93.5973,-2.0,24.17,11111222 
TABS,ioos:station:wmo:42047:1,2002-04-21T12:00:00Z,27.8966,-93.5973,-2.0,24.15,11111222 
TABS,ioos:station:wmo:42047:1,2002-04-21T12:30:00Z,27.8966,-93.5973,-2.0,24.07,11111222 
TABS,ioos:station:wmo:42047:1,2002-04-21T13:00:00Z,27.8966,-93.5973,-2.0,24.1,11111222 
TABS,ioos:station:wmo:42047:1,2002-04-21T13:30:00Z,27.8966,-93.5973,-2.0,24.11,11111222 
TABS,ioos:station:wmo:42047:1,2002-04-21T14:00:00Z,27.8966,-93.5973,-2.0,24.12,11111222 
TABS,ioos:station:wmo:42047:1,2002-04-21T14:30:00Z,27.8966,-93.5973,-2.0,24.13,11111222 
TABS,ioos:station:wmo:42047:1,2002-04-21T15:00:00Z,27.8966,-93.5973,-2.0,24.1,11111222 
TABS,ioos:station:wmo:42047:1,2002-04-21T15:30:00Z,27.8966,-93.5973,-2.0,24.0,11111222 
TABS,ioos:station:wmo:42047:1,2002-04-21T16:00:00Z,27.8966,-93.5973,-2.0,23.99,11111222 
TABS,ioos:station:wmo:42047:1,2002-04-21T16:30:00Z,27.8966,-93.5973,-2.0,24.01,11111222 
TABS,ioos:station:wmo:42047:1,2002-04-21T17:00:00Z,27.8966,-93.5973,-2.0,24.03,11111222 
TABS,ioos:station:wmo:42047:1,2002-04-21T17:30:00Z,27.8966,-93.5973,-2.0,24.05,11111222 
TABS,ioos:station:wmo:42047:1,2002-04-21T18:00:00Z,27.8966,-93.5973,-2.0,24.15,11111222 
TABS,ioos:station:wmo:42047:1,2002-04-21T18:30:00Z,27.8966,-93.5973,-2.0,24.15,11111222 
TABS,ioos:station:wmo:42047:1,2002-04-21T19:00:00Z,27.8966,-93.5973,-2.0,24.22,11111222 
TABS,ioos:station:wmo:42047:1,2002-04-21T19:30:00Z,27.8966,-93.5973,-2.0,24.21,11111222 
TABS,ioos:station:wmo:42047:1,2002-04-21T20:00:00Z,27.8966,-93.5973,-2.0,24.21,11111222 
TABS,ioos:station:wmo:42047:1,2002-04-21T20:30:00Z,27.8966,-93.5973,-2.0,24.29,11111222 
TABS,ioos:station:wmo:42047:1,2002-04-21T21:00:00Z,27.8966,-93.5973,-2.0,24.3,11111222 
TABS,ioos:station:wmo:42047:1,2002-04-21T21:30:00Z,27.8966,-93.5973,-2.0,24.34,11111222 
TABS,ioos:station:wmo:42047:1,2002-04-21T22:00:00Z,27.8966,-93.5973,-2.0,24.37,11111222 
TABS,ioos:station:wmo:42047:1,2002-04-21T22:30:00Z,27.8966,-93.5973,-2.0,24.37,11111222 
TABS,ioos:station:wmo:42047:1,2002-04-21T23:00:00Z,27.8966,-93.5973,-2.0,24.32,11111222 
TABS,ioos:station:wmo:42047:1,2002-04-21T23:30:00Z,27.8966,-93.5973,-2.0,24.34,11111222 
TABS,ioos:station:wmo:42047:1,2002-04-22T00:00:00Z,27.8966,-93.5973,-2.0,24.34,11111222 
TABS,ioos:station:wmo:42047:1,2002-04-22T00:30:00Z,27.8966,-93.5973,-2.0,24.27,11111222 
TABS,ioos:station:wmo:42047:1,2002-04-22T01:00:00Z,27.8966,-93.5973,-2.0,24.25,11111222 
TABS,ioos:station:wmo:42047:1,2002-04-22T01:30:00Z,27.8966,-93.5973,-2.0,24.31,11111222 
TABS,ioos:station:wmo:42047:1,2002-04-22T02:00:00Z,27.8966,-93.5973,-2.0,24.35,11111222 
TABS,ioos:station:wmo:42047:1,2002-04-22T02:30:00Z,27.8966,-93.5973,-2.0,24.37,11111222 
TABS,ioos:station:wmo:42047:1,2002-04-22T03:00:00Z,27.8966,-93.5973,-2.0,24.4,11111222 
TABS,ioos:station:wmo:42047:1,2002-04-22T03:30:00Z,27.8966,-93.5973,-2.0,24.43,11111222 
TABS,ioos:station:wmo:42047:1,2002-04-22T04:00:00Z,27.8966,-93.5973,-2.0,24.46,11111222 
TABS,ioos:station:wmo:42047:1,2002-04-22T04:30:00Z,27.8966,-93.5973,-2.0,24.47,11111222 
TABS,ioos:station:wmo:42047:1,2002-04-22T05:00:00Z,27.8966,-93.5973,-2.0,24.48,11111222 
TABS,ioos:station:wmo:42047:1,2002-04-22T05:30:00Z,27.8966,-93.5973,-2.0,24.5,11111222 
TABS,ioos:station:wmo:42047:1,2002-04-22T06:00:00Z,27.8966,-93.5973,-2.0,24.49,11111222 
TABS,ioos:station:wmo:42047:1,2002-04-22T06:30:00Z,27.8966,-93.5973,-2.0,24.5,11111222 
TABS,ioos:station:wmo:42047:1,2002-04-22T07:00:00Z,27.8966,-93.5973,-2.0,24.52,11111222 
TABS,ioos:station:wmo:42047:1,2002-04-22T07:30:00Z,27.8966,-93.5973,-2.0,24.52,11111222 
TABS,ioos:station:wmo:42047:1,2002-04-22T08:00:00Z,27.8966,-93.5973,-2.0,24.51,11111222 
TABS,ioos:station:wmo:42047:1,2002-04-22T08:30:00Z,27.8966,-93.5973,-2.0,24.5,11111222 
TABS,ioos:station:wmo:42047:1,2002-04-22T09:00:00Z,27.8966,-93.5973,-2.0,24.49,11111222 
TABS,ioos:station:wmo:42047:1,2002-04-22T09:30:00Z,27.8966,-93.5973,-2.0,24.49,11111222 
TABS,ioos:station:wmo:42047:1,2002-04-22T10:00:00Z,27.8966,-93.5973,-2.0,24.48,11111222 
TABS,ioos:station:wmo:42047:1,2002-04-22T10:30:00Z,27.8966,-93.5973,-2.0,24.47,11111222 
TABS,ioos:station:wmo:42047:1,2002-04-22T11:00:00Z,27.8966,-93.5973,-2.0,24.45,11111222 
TABS,ioos:station:wmo:42047:1,2002-04-22T11:30:00Z,27.8966,-93.5973,-2.0,24.44,11111222 
TABS,ioos:station:wmo:42047:1,2002-04-22T12:00:00Z,27.8966,-93.5973,-2.0,24.43,11111222 
TABS,ioos:station:wmo:42047:1,2002-04-22T12:30:00Z,27.8966,-93.5973,-2.0,24.42,11111222 
TABS,ioos:station:wmo:42047:1,2002-04-22T13:00:00Z,27.8966,-93.5973,-2.0,24.41,11111222 
TABS,ioos:station:wmo:42047:1,2002-04-22T13:30:00Z,27.8966,-93.5973,-2.0,24.41,11111222 
TABS,ioos:station:wmo:42047:1,2002-04-22T14:00:00Z,27.8966,-93.5973,-2.0,24.41,11111222 
TABS,ioos:station:wmo:42047:1,2002-04-22T14:30:00Z,27.8966,-93.5973,-2.0,24.41,11111222 
TABS,ioos:station:wmo:42047:1,2002-04-22T15:00:00Z,27.8966,-93.5973,-2.0,24.37,11111222 
TABS,ioos:station:wmo:42047:1,2002-04-22T15:30:00Z,27.8966,-93.5973,-2.0,24.36,11111222 
TABS,ioos:station:wmo:42047:1,2002-04-22T16:00:00Z,27.8966,-93.5973,-2.0,24.34,11111222 
TABS,ioos:station:wmo:42047:1,2002-04-22T16:30:00Z,27.8966,-93.5973,-2.0,24.38,11111222 
TABS,ioos:station:wmo:42047:1,2002-04-22T17:00:00Z,27.8966,-93.5973,-2.0,24.38,11111222 
TABS,ioos:station:wmo:42047:1,2002-04-22T17:30:00Z,27.8966,-93.5973,-2.0,24.37,11111222 
TABS,ioos:station:wmo:42047:1,2002-04-22T18:00:00Z,27.8966,-93.5973,-2.0,24.37,11111222 
TABS,ioos:station:wmo:42047:1,2002-04-22T18:30:00Z,27.8966,-93.5973,-2.0,24.46,11111222 
TABS,ioos:station:wmo:42047:1,2002-04-22T19:00:00Z,27.8966,-93.5973,-2.0,24.48,11111222 
TABS,ioos:station:wmo:42047:1,2002-04-22T19:30:00Z,27.8966,-93.5973,-2.0,24.53,11111222 
TABS,ioos:station:wmo:42047:1,2002-04-22T20:00:00Z,27.8966,-93.5973,-2.0,24.49,11111222 
TABS,ioos:station:wmo:42047:1,2002-04-22T20:30:00Z,27.8966,-93.5973,-2.0,24.52,11111222 
TABS,ioos:station:wmo:42047:1,2002-04-22T21:00:00Z,27.8966,-93.5973,-2.0,24.52,11111222 
TABS,ioos:station:wmo:42047:1,2002-04-22T21:30:00Z,27.8966,-93.5973,-2.0,24.53,11111222 
TABS,ioos:station:wmo:42047:1,2002-04-22T22:00:00Z,27.8966,-93.5973,-2.0,24.55,11111222 
TABS,ioos:station:wmo:42047:1,2002-04-22T22:30:00Z,27.8966,-93.5973,-2.0,24.61,11111222 
TABS,ioos:station:wmo:42047:1,2002-04-22T23:00:00Z,27.8966,-93.5973,-2.0,24.63,11111222 
TABS,ioos:station:wmo:42047:1,2002-04-22T23:30:00Z,27.8966,-93.5973,-2.0,24.56,11111222 
TABS,ioos:station:wmo:42047:1,2002-04-23T00:00:00Z,27.8966,-93.5973,-2.0,24.55,11111222 
TABS,ioos:station:wmo:42047:1,2002-04-23T00:30:00Z,27.8966,-93.5973,-2.0,24.54,11111222 
TABS,ioos:station:wmo:42047:1,2002-04-23T01:00:00Z,27.8966,-93.5973,-2.0,24.73,11111222 
TABS,ioos:station:wmo:42047:1,2002-04-23T01:30:00Z,27.8966,-93.5973,-2.0,24.82,11111222 
TABS,ioos:station:wmo:42047:1,2002-04-23T02:00:00Z,27.8966,-93.5973,-2.0,24.8,11111222 
TABS,ioos:station:wmo:42047:1,2002-04-23T02:30:00Z,27.8966,-93.5973,-2.0,24.76,11111222 
TABS,ioos:station:wmo:42047:1,2002-04-23T03:00:00Z,27.8966,-93.5973,-2.0,24.76,11111222 
TABS,ioos:station:wmo:42047:1,2002-04-23T03:30:00Z,27.8966,-93.5973,-2.0,24.79,11111222 
TABS,ioos:station:wmo:42047:1,2002-04-23T04:00:00Z,27.8966,-93.5973,-2.0,24.77,11111222 
TABS,ioos:station:wmo:42047:1,2002-04-23T04:30:00Z,27.8966,-93.5973,-2.0,24.7,11111222 
TABS,ioos:station:wmo:42047:1,2002-04-23T05:00:00Z,27.8966,-93.5973,-2.0,24.72,11111222 
TABS,ioos:station:wmo:42047:1,2002-04-23T05:30:00Z,27.8966,-93.5973,-2.0,24.94,11111222 
TABS,ioos:station:wmo:42047:1,2002-04-23T06:00:00Z,27.8966,-93.5973,-2.0,24.98,11111222 
TABS,ioos:station:wmo:42047:1,2002-04-23T06:30:00Z,27.8966,-93.5973,-2.0,24.92,11111222 
TABS,ioos:station:wmo:42047:1,2002-04-23T07:00:00Z,27.8966,-93.5973,-2.0,24.85,11111222 
TABS,ioos:station:wmo:42047:1,2002-04-23T07:30:00Z,27.8966,-93.5973,-2.0,24.72,11111222 
TABS,ioos:station:wmo:42047:1,2002-04-23T08:00:00Z,27.8966,-93.5973,-2.0,24.66,11111222 
TABS,ioos:station:wmo:42047:1,2002-04-23T08:30:00Z,27.8966,-93.5973,-2.0,24.65,11111222 
TABS,ioos:station:wmo:42047:1,2002-04-23T09:00:00Z,27.8966,-93.5973,-2.0,24.63,11111222 
TABS,ioos:station:wmo:42047:1,2002-04-23T09:30:00Z,27.8966,-93.5973,-2.0,24.6,11111222 
TABS,ioos:station:wmo:42047:1,2002-04-23T10:00:00Z,27.8966,-93.5973,-2.0,24.58,11111222 
TABS,ioos:station:wmo:42047:1,2002-04-23T10:30:00Z,27.8966,-93.5973,-2.0,24.54,11111222 
TABS,ioos:station:wmo:42047:1,2002-04-23T11:00:00Z,27.8966,-93.5973,-2.0,24.71,11111222 
TABS,ioos:station:wmo:42047:1,2002-04-23T11:30:00Z,27.8966,-93.5973,-2.0,24.72,11111222 
TABS,ioos:station:wmo:42047:1,2002-04-23T12:00:00Z,27.8966,-93.5973,-2.0,24.66,11111222 
TABS,ioos:station:wmo:42047:1,2002-04-23T12:30:00Z,27.8966,-93.5973,-2.0,24.66,11111222 
TABS,ioos:station:wmo:42047:1,2002-04-23T13:00:00Z,27.8966,-93.5973,-2.0,24.64,11111222 
TABS,ioos:station:wmo:42047:1,2002-04-23T13:30:00Z,27.8966,-93.5973,-2.0,24.63,11111222 
TABS,ioos:station:wmo:42047:1,2002-04-23T14:00:00Z,27.8966,-93.5973,-2.0,24.64,11111222 
TABS,ioos:station:wmo:42047:1,2002-04-23T14:30:00Z,27.8966,-93.5973,-2.0,24.63,11111222 